Gulfport, MS

4:22 AM CDT on March 23, 2017 (GMT -0500)
Gulfport-Biloxi Regional

Weather History for KGPT - September, 2012

Change the Weather History Date:

Saturday, September 22, 2012

  Actual Average Record
Temperature  
Mean Temperature 75 °F -  
Max Temperature 86 °F 86 °F 93 °F (1960)
Min Temperature 66 °F 68 °F 46 °F (1983)
Cooling Degree Days 10    
Growing Degree Days 25 (Base 50)    
Moisture  
Dew Point 69 °F    
Average Humidity 82    
Maximum Humidity 96    
Minimum Humidity 57    
Precipitation  
Precipitation 0.00 in - - ()
Sea Level Pressure  
Sea Level Pressure 30.04 in    
Wind  
Wind Speed 2 mph (SW)    
Max Wind Speed 9 mph    
Max Gust Speed -    
Visibility 8 miles    
Events      
Averages and records for this station are not official NWS values.
T = Trace of Precipitation, MM = Missing Value Source: NWS Daily Summary

Daily Weather History Graph

Daily Weather History Graph

Search for Another Location

Airport or City:

Trip Planner

Search our weather history database for the weather conditions in past years. The results will help you decide how hot, cold, wet, or windy it might be!

Date:

Astronomy

Sep. 22, 2012 Rise Set
Actual Time 6:44 AM CDT 6:52 PM CDT
Civil Twilight 6:20 AM CDT 7:16 PM CDT
Nautical Twilight 5:52 AM CDT 7:44 PM CDT
Astronomical Twilight 5:24 AM CDT 8:12 PM CDT
Moon 1:38 PM CDT (9/22) No Moon Set
Length of Visible Light 12h 55m
Length of Day
12h 07m
Waxing Crescent, 49% of the Moon is Illuminated
Sep 22
Waxing Crescent
Sep 22
First Quarter
Sep 29
Full
Oct 8
Last Quarter
Oct 15
New

Hourly Weather History & Observations

Time (CDT) Temp. Heat Index Dew Point Humidity Pressure Visibility Wind Dir Wind Speed Gust Speed Precip Events Conditions
12:53 AM 70.0 °F - 68.0 °F 93% 30.00 in 7.0 mi Calm Calm - N/A   Clear
1:53 AM 69.1 °F - 66.9 °F 93% 30.00 in 7.0 mi Calm Calm - N/A   Clear
2:53 AM 68.0 °F - 66.9 °F 96% 30.00 in 6.0 mi Calm Calm - N/A   Clear
3:53 AM 68.0 °F - 66.0 °F 93% 30.00 in 6.0 mi Calm Calm - N/A   Clear
4:53 AM 68.0 °F - 66.0 °F 93% 30.01 in 6.0 mi Calm Calm - N/A   Clear
5:53 AM 66.9 °F - 64.9 °F 93% 30.03 in 6.0 mi NNW 3.5 mph - N/A   Clear
6:47 AM 66.2 °F - 64.4 °F 94% 30.05 in 3.0 mi NNW 3.5 mph - N/A   Clear
6:53 AM 66.0 °F - 64.9 °F 96% 30.05 in 4.0 mi NNW 4.6 mph - N/A   Clear
7:53 AM 71.1 °F - 68.0 °F 90% 30.06 in 4.0 mi Calm Calm - N/A   Clear
8:53 AM 75.9 °F - 71.1 °F 85% 30.07 in 10.0 mi Calm Calm - N/A   Clear
9:53 AM 79.0 °F - 71.1 °F 77% 30.08 in 10.0 mi North 4.6 mph - N/A   Clear
10:53 AM 82.9 °F 87.0 °F 70.0 °F 65% 30.09 in 10.0 mi Variable 3.5 mph - N/A   Partly Cloudy
11:53 AM 84.9 °F 88.2 °F 68.0 °F 57% 30.09 in 10.0 mi Calm Calm - N/A   Partly Cloudy
12:53 PM 84.0 °F 89.6 °F 72.0 °F 67% 30.06 in 10.0 mi SSE 9.2 mph - N/A   Partly Cloudy
1:53 PM 82.9 °F 88.0 °F 72.0 °F 69% 30.04 in 10.0 mi SSW 5.8 mph - N/A   Partly Cloudy
2:53 PM 84.9 °F 91.4 °F 73.0 °F 67% 30.02 in 10.0 mi South 9.2 mph - N/A   Clear
3:53 PM 84.9 °F 90.7 °F 72.0 °F 65% 30.02 in 10.0 mi South 8.1 mph - N/A   Clear
4:53 PM 84.0 °F 89.0 °F 71.1 °F 65% 30.01 in 10.0 mi SSW 5.8 mph - N/A   Clear
5:53 PM 82.0 °F 86.3 °F 71.1 °F 69% 30.02 in 10.0 mi SSW 4.6 mph - N/A   Clear
6:53 PM 80.1 °F 83.8 °F 72.0 °F 76% 30.03 in 10.0 mi WSW 3.5 mph - N/A   Clear
7:53 PM 77.0 °F - 73.0 °F 88% 30.05 in 10.0 mi Calm Calm - N/A   Clear
8:53 PM 75.0 °F - 72.0 °F 90% 30.06 in 10.0 mi Calm Calm - N/A   Clear
9:53 PM 73.9 °F - 71.1 °F 91% 30.08 in 9.0 mi Calm Calm - N/A   Clear
10:53 PM 72.0 °F - 70.0 °F 93% 30.09 in 8.0 mi Calm Calm - N/A   Clear
11:53 PM 72.0 °F - 70.0 °F 93% 30.09 in 7.0 mi Calm Calm - N/A   Clear